Weather History for KOLF - July, 2013

Change the Weather History Date:

Saturday, July 20, 2013

  Actual Average Record
Temperature  
Mean Temperature 69 °F -  
Max Temperature 84 °F 88 °F 100 °F (2007)
Min Temperature 54 °F 55 °F 50 °F (2010)
Degree Days  
Heating Degree Days 0    
Cooling Degree Days 4    
Growing Degree Days 18 (Base 50)    
Moisture  
Dew Point 58 °F    
Average Humidity 71    
Maximum Humidity 93    
Minimum Humidity 42    
Precipitation  
Precipitation 0.03 in 0.06 in 0.03 in (2013)
Month to date precipitation 0.75 1.32  
Year to date precipitation 9.47 7.73  
Sea Level Pressure  
Sea Level Pressure 29.93 in    
Wind  
Wind Speed 6 mph (ENE)    
Max Wind Speed 15 mph    
Max Gust Speed 17 mph    
Visibility 10 miles    
Events Rain , Thunderstorm    
T = Trace of Precipitation, MM = Missing Value Source: NWS Daily Summary

Daily Weather History Graph

Daily Weather History Graph

Search for Another Location

Airport or City:

Trip Planner

Search our weather history database for the weather conditions in past years. The results will help you decide how hot, cold, wet, or windy it might be!

Date:

Astronomy

Jul. 20, 2013 Rise Set
Actual Time 5:23 AM MDT 8:52 PM MDT
Civil Twilight 4:45 AM MDT 9:31 PM MDT
Nautical Twilight 3:53 AM MDT 10:22 PM MDT
Astronomical Twilight 2:44 AM MDT 11:30 PM MDT
Moon 6:57 PM MDT (7/20) 3:07 AM MDT (7/20)
Length of Visible Light 16h 45m
Length of Day
15h 28m
Waxing Gibbous, 94% of the Moon is Illuminated
Jul 20
Waxing Gibbous
Jul 22
Full
Jul 29
Last Quarter
Aug 6
New
Aug 14
First Quarter

Hourly Weather History & Observations

Time (MDT) Temp. Heat Index Dew Point Humidity Pressure Visibility Wind Dir Wind Speed Gust Speed Precip Events Conditions
12:53 AM 60.1 °F - 55.9 °F 86% 29.97 in 10.0 mi East 4.6 mph - N/A   Clear
1:53 AM 57.9 °F - 55.0 °F 90% 29.96 in 10.0 mi Calm Calm - N/A   Clear
2:53 AM 55.9 °F - 54.0 °F 93% 29.96 in 10.0 mi Calm Calm - N/A   Clear
3:53 AM 55.9 °F - 53.1 °F 90% 29.97 in 10.0 mi Calm Calm - N/A   Clear
4:53 AM 55.9 °F - 53.1 °F 90% 29.98 in 10.0 mi ENE 3.5 mph - N/A   Scattered Clouds
5:53 AM 55.0 °F - 53.1 °F 93% 29.98 in 10.0 mi ESE 5.8 mph - N/A   Clear
6:53 AM 60.1 °F - 55.0 °F 83% 29.98 in 10.0 mi ENE 5.8 mph - N/A   Scattered Clouds
7:53 AM 64.0 °F - 55.9 °F 75% 29.99 in 10.0 mi East 8.1 mph - N/A   Scattered Clouds
8:53 AM 66.9 °F - 57.0 °F 70% 29.99 in 10.0 mi East 10.4 mph - N/A   Clear
9:53 AM 71.1 °F - 57.0 °F 61% 29.99 in 10.0 mi East 12.7 mph - N/A   Clear
10:53 AM 72.0 °F - 57.9 °F 61% 29.99 in 10.0 mi East 13.8 mph - N/A   Clear
11:53 AM 73.9 °F - 57.0 °F 55% 29.98 in 10.0 mi East 11.5 mph - N/A   Mostly Cloudy
12:53 PM 75.9 °F - 57.9 °F 54% 29.96 in 10.0 mi East 9.2 mph 17.3 mph N/A   Clear
1:53 PM 78.1 °F - 55.0 °F 45% 29.94 in 10.0 mi ENE 10.4 mph - N/A   Clear
2:53 PM 81.0 °F 81.1 °F 57.9 °F 45% 29.92 in 10.0 mi ENE 12.7 mph - N/A   Clear
3:53 PM 82.0 °F 81.7 °F 57.0 °F 42% 29.89 in 10.0 mi East 11.5 mph - N/A   Clear
4:53 PM 80.1 °F 80.1 °F 55.0 °F 42% 29.88 in 10.0 mi SSE 8.1 mph - N/A   Clear
5:35 PM 77.0 °F - 57.2 °F 50% 29.89 in 10.0 mi East 12.7 mph - N/A Thunderstorm Clear
5:53 PM 73.9 °F - 60.1 °F 62% 29.90 in 9.0 mi NE 8.1 mph - 0.01 in Rain , Thunderstorm Light Rain
6:28 PM 73.4 °F - 62.6 °F 69% 29.89 in 10.0 mi ENE 6.9 mph - 0.02 in Thunderstorm Mostly Cloudy
6:49 PM 71.6 °F - 62.6 °F 73% 29.90 in 10.0 mi NE 15.0 mph - 0.02 in   Partly Cloudy
6:53 PM 71.1 °F - 61.0 °F 70% 29.89 in 10.0 mi NE 11.5 mph - 0.02 in   Clear
7:53 PM 73.0 °F - 61.0 °F 66% 29.86 in 10.0 mi ENE 6.9 mph - 0.00 in   Clear
8:53 PM 68.0 °F - 62.1 °F 81% 29.86 in 10.0 mi East 6.9 mph - N/A   Clear
9:53 PM 64.0 °F - 61.0 °F 90% 29.86 in 10.0 mi ENE 5.8 mph - N/A   Clear
10:53 PM 64.0 °F - 60.1 °F 87% 29.85 in 10.0 mi NE 5.8 mph - N/A   Clear
11:53 PM 63.0 °F - 60.1 °F 90% 29.83 in 10.0 mi East 3.5 mph - N/A   Clear